星链-1551 (STARLINK-1551 )

导读 | 豆包AI

STARLINK-1551是美国太空探索技术公司Starlink星链卫星互联网项目的卫星,于2020年8月7日发射升空。作为星链星座的组成部分,它旨在为全球提供低延迟、高速率的宽带互联网服务,依托低轨轨道部署,助力实现全球覆盖的卫星互联网组网,服务各类地面网络覆盖不足区域的网络需求。

Basic Information
目录编号:
46075
目录名称:
STARLINK-1551
国际标识:
2020-055BA
轨道中心:
EARTH
卫星名称:
星链-1551
卫星全名:
星链-1551 (STARLINK-1551 )
卫星状态:
在轨 (已飞行2045 天)
发射日期:
2020-08-07 UTC
国别 :
美国 (US)
星等 :
--
Orbit Information
数据来源 国际轨道数据 AOE轨道数据
星历时间 2026-03-13T17:40:08+0800
21小时前
查看轨道信息
2026-03-11T06:00:00+0800
3天前
查看轨道信息
半长轴 6925.358km 6925.381km
偏心率 0.0001333 0.0002137
轨道倾角 53.055° 53.055°
近地点辐角 88.757° 82.839°
升交点赤经 79.949° 91.108°
平近点角 271.358° 107.056°
近地点 546.297km 545.764km
远地点 548.145km 548.724km
周期 95.592分钟 95.593分钟
每日圈数 15.06397 15.063897
Detailed Information
固有亮度:
5
最大亮度:
2.5
卫星平台:
Starlink V1.0
覆盖范围:
全球
运营商:
太空探索技术公司
运营商所在国:
美国
制造商(研发单位):
太空探索技术公司
制造商所在国:
美国
使用方式:
暂无
Satellite Introduction
星链(Starlink)计划是由太空探索技术公司(SpaceX)提出的一个巨型低轨卫星互联网星座项目,计划在2019年至2024年间在太空搭建由约1.2万颗卫星组成的“星链”网络,其中1584颗将部署在地球上空550千米处的近地轨道,并从2020年开始工作。该卫星仍在工作。
2D Orbit Map
3D Orbit Map
Orbit Altitude Analysis Chart
Orbit Inclination Analysis Chart
Orbit Comprehensive Analysis Chart
View Comprehensive Chart